EW8576 Weather Reports


Display with metric or nautical units.
time (UTC)temp
F
wind
direction
speed
MPH
gust
MPH
rain 1hr
in
rain 24hr
in
rain mn
in
humidity
%
barometer
mb
20260903194628 84 69 0.0 4.0 0.00 0.00 0.00 1 1009.7
20260903194126 84 69 1.0 4.0 0.00 0.00 0.00 1 1009.8
20260903193624 83 69 1.0 4.0 0.00 0.00 0.00 1 1009.8
20260903193124 83 69 0.0 5.0 0.00 0.00 0.00 1 1009.9
20260903192848 83 69 0.0 5.0 0.00 0.00 0.00 1 1009.8
20260903192124 83 67 0.0 5.0 0.00 0.00 0.00 1 1009.9
20260903191624 83 67 1.0 5.0 0.00 0.00 0.00 1 1010.0
20260903191350 84 67 0.0 4.0 0.00 0.00 0.00 1 1010.1
20260903190624 83 67 0.0 2.0 0.00 0.00 0.00 1 1010.1
20260903190122 84 67 0.0 0.0 0.00 0.00 0.00 1 1010.0
20260903185620 83 67 1.0 3.0 0.00 0.00 0.00 1 1010.0
20260903185118 83 67 2.0 6.0 0.00 0.00 0.00 1 1010.1
20260903184616 83 67 2.0 6.0 0.00 0.00 0.00 1 1010.1
20260903184116 84 265 1.0 7.0 0.00 0.00 0.00 1 1010.1
20260903183616 84 265 1.0 7.0 0.00 0.00 0.00 1 1010.2
20260903183114 84 263 1.0 4.0 0.00 0.00 0.00 1 1010.2
20260903182614 84 262 3.0 8.0 0.00 0.00 0.00 1 1010.2
20260903182114 84 262 4.0 8.0 0.00 0.00 0.00 1 1010.1
20260903181615 84 266 4.0 7.0 0.00 0.00 0.00 1 1010.2
20260903181108 84 265 4.0 9.0 0.00 0.00 0.00 1 1010.3
20260903180608 84 269 5.0 9.0 0.00 0.00 0.00 1 1010.3
20260903180107 83 252 6.0 10.0 0.00 0.00 0.00 1 1010.4
20260903175608 83 246 6.0 10.0 0.00 0.00 0.00 1 1010.4
20260903175108 83 253 5.0 10.0 0.00 0.00 0.00 1 1010.4
20260903174608 83 309 4.0 8.0 0.00 0.00 0.00 1 1010.3
20260903174108 83 292 4.0 8.0 0.00 0.00 0.00 1 1010.4
20260903173608 82 222 4.0 8.0 0.00 0.00 0.00 1 1010.4
20260903173329 82 254 4.0 8.0 0.00 0.00 0.00 1 1010.4
20260903172608 82 227 4.0 9.0 0.00 0.00 0.00 1 1010.4
20260903172326 81 229 4.0 9.0 0.00 0.00 0.00 1 1010.6
20260903172045 81 257 4.0 7.0 0.00 0.00 0.00 1 1010.5
20260903171108 80 254 4.0 8.0 0.00 0.00 0.00 1 1010.6
20260903170609 80 263 4.0 8.0 0.00 0.00 0.00 1 1010.7
20260903170109 80 280 4.0 10.0 0.00 0.00 0.00 1 1010.8
20260903165602 80 238 4.0 10.0 0.00 0.00 0.00 1 1010.7
20260903165056 80 215 5.0 10.0 0.00 0.00 0.00 1 1010.7
20260903164556 81 269 5.0 10.0 0.00 0.00 0.00 1 1010.8
20260903164056 82 252 6.0 12.0 0.00 0.00 0.00 1 1010.9
20260903163556 81 254 5.0 12.0 0.00 0.00 0.00 1 1011.0
20260903163056 81 219 5.0 12.0 0.00 0.00 0.00 1 1011.1
20260903162556 80 169 6.0 10.0 0.00 0.00 0.00 1 1011.1
20260903162054 80 256 5.0 10.0 0.00 0.00 0.00 1 1011.1
20260903161817 79 262 4.0 8.0 0.00 0.00 0.00 1 1011.2
20260903161052 78 296 4.0 8.0 0.00 0.00 0.00 1 1011.3
20260903160815 78 233 4.0 8.0 0.00 0.00 0.00 1 1011.4
20260903160052 78 198 5.0 8.0 0.00 0.00 0.00 1 1011.4
20260903155551 78 245 4.0 8.0 0.00 0.00 0.00 1 1011.4
20260903155052 78 234 3.0 9.0 0.00 0.00 0.00 1 1011.4
20260903154548 78 231 3.0 10.0 0.00 0.00 0.00 1 1011.5
20260903154310 78 229 4.0 10.0 0.00 0.00 0.00 1 1011.4
20260903153809 77 260 4.0 7.0 0.00 0.00 0.00 1 1011.5
20260903153048 77 259 3.0 7.0 0.00 0.00 0.00 1 1011.6
20260903152548 77 259 3.0 9.0 0.00 0.00 0.00 1 1011.6
20260903152047 76 264 3.0 9.0 0.00 0.00 0.00 1 1011.5
20260903151547 76 267 4.0 9.0 0.00 0.00 0.00 1 1011.7
20260903151048 75 267 6.0 9.0 0.00 0.00 0.00 1 1011.9
20260903150740 74 271 4.0 9.0 0.00 0.00 0.00 1 1012.0
20260903150625 75 245 5.0 9.0 0.00 0.00 0.00 1 1012.0
20260903145544 74 259 4.0 8.0 0.00 0.00 0.00 1 1011.9
20260903145044 74 259 5.0 9.0 0.00 0.00 0.00 1 1011.9
20260903144543 73 256 6.0 10.0 0.00 0.00 0.00 1 1012.0
20260903144043 73 238 6.0 10.0 0.00 0.00 0.00 1 1012.0
20260903143543 73 255 6.0 9.0 0.00 0.00 0.00 1 1011.9
20260903143301 72 282 6.0 9.0 0.00 0.00 0.00 1 1011.9
20260903142544 72 243 6.0 9.0 0.00 0.00 0.00 1 1011.8
20260903142044 72 238 5.0 11.0 0.00 0.00 0.00 1 1011.8
20260903141544 71 281 6.0 11.0 0.00 0.00 0.00 1 1011.8
20260903141044 71 260 6.0 11.0 0.00 0.00 0.00 1 1011.8
20260903140543 71 250 5.0 11.0 0.00 0.00 0.00 1 1011.9
20260903140044 71 240 4.0 9.0 0.00 0.00 0.00 1 1011.7
20260903135544 71 257 3.0 9.0 0.00 0.00 0.00 1 1011.6
20260903135044 71 264 4.0 10.0 0.00 0.00 0.00 1 1011.6
20260903134544 70 245 4.0 10.0 0.00 0.00 0.00 1 1011.6
20260903134044 70 257 3.0 9.0 0.00 0.00 0.00 1 1011.5
20260903133543 70 267 2.0 9.0 0.00 0.00 0.00 1 1011.7
20260903133043 70 267 2.0 7.0 0.00 0.00 0.00 1 1011.8
20260903132543 70 241 1.0 6.0 0.00 0.00 0.00 1 1011.9
20260903132043 69 253 1.0 7.0 0.00 0.00 0.00 1 1011.9
20260903131544 69 257 2.0 8.0 0.00 0.00 0.00 1 1012.0
20260903131044 69 242 2.0 8.0 0.00 0.00 0.00 1 1012.0
20260903130544 68 245 2.0 6.0 0.00 0.00 0.00 1 1012.0
20260903130042 68 246 1.0 6.0 0.00 0.00 0.00 1 1012.0
20260903125539 68 244 0.0 4.0 0.00 0.00 0.00 1 1012.1
20260903125036 68 244 0.0 2.0 0.00 0.00 0.00 1 1012.1
20260903124535 68 244 0.0 1.0 0.00 0.00 0.00 1 1012.2
20260903124034 68 244 0.0 1.0 0.00 0.00 0.00 1 1012.2
20260903123759 68 244 0.0 1.0 0.00 0.00 0.00 1 1012.5
20260903123033 67 244 0.0 1.0 0.00 0.00 0.00 1 1012.5
20260903122533 67 244 0.0 0.0 0.00 0.00 0.00 1 1012.6
20260903122031 67 244 0.0 0.0 0.00 0.00 0.00 1 1012.6
20260903121531 67 244 0.0 0.0 0.00 0.00 0.00 1 1012.7
20260903121257 67 244 0.0 0.0 0.00 0.00 0.00 1 1012.7
20260903120757 67 244 0.0 0.0 0.00 0.00 0.00 1 1012.6
20260903120031 67 244 0.0 0.0 0.00 0.00 0.00 1 1012.6
20260903115528 67 244 0.0 0.0 0.00 0.00 0.00 1 1012.6
20260903115028 67 244 0.0 0.0 0.00 0.00 0.00 1 1012.5
20260903114528 66 244 0.0 0.0 0.00 0.00 0.00 1 1012.5
20260903114026 66 244 0.0 0.0 0.00 0.00 0.00 1 1012.5
20260903113526 66 244 0.0 0.0 0.00 0.00 0.00 1 1012.4
20260903113025 66 244 0.0 0.0 0.00 0.00 0.00 1 1012.7
20260903112746 66 244 0.0 2.0 0.00 0.00 0.00 1 1012.8
20260903112024 66 244 1.0 2.0 0.00 0.00 0.00 1 1012.7
20260903111746 66 244 0.0 2.0 0.00 0.00 0.00 1 1012.8
20260903111018 66 244 0.0 2.0 0.00 0.00 0.00 1 1012.8
20260903110511 66 244 0.0 2.0 0.00 0.00 0.00 1 1012.8
20260903110005 66 244 0.0 2.0 0.00 0.00 0.00 1 1012.7
20260903105459 65 244 0.0 1.0 0.00 0.00 0.00 1 1013.1
20260903104953 65 244 0.0 0.0 0.00 0.00 0.00 1 1012.9
20260903104447 65 244 0.0 0.0 0.00 0.00 0.00 1 1012.6
20260903103941 65 244 0.0 0.0 0.00 0.00 0.00 1 1012.8
20260903103435 65 244 0.0 0.0 0.00 0.00 0.00 1 1013.1
20260903102929 65 244 0.0 0.0 0.00 0.00 0.00 1 1013.0
20260903102901 65 244 0.0 0.0 0.00 0.00 0.00 1 1012.9
20260903101918 65 244 0.0 0.0 0.00 0.00 0.00 1 1012.7
20260903101411 65 244 0.0 0.0 0.00 0.00 0.00 1 1012.8
20260903100905 65 244 0.0 1.0 0.00 0.00 0.00 1 1012.6
20260903100359 65 244 0.0 1.0 0.00 0.00 0.00 1 1012.6
20260903095854 65 244 0.0 2.0 0.00 0.00 0.00 1 1012.9
20260903095347 65 244 0.0 2.0 0.00 0.00 0.00 1 1012.8
20260903094841 65 244 0.0 2.0 0.00 0.00 0.00 1 1012.8
20260903094335 65 244 0.0 2.0 0.00 0.00 0.00 1 1012.8
20260903093829 65 244 0.0 0.0 0.00 0.00 0.00 1 1012.7
20260903093323 65 244 0.0 0.0 0.00 0.00 0.00 1 1012.7
20260903093047 65 244 0.0 0.0 0.00 0.00 0.00 1 1012.6
20260903092311 65 244 0.0 0.0 0.00 0.00 0.00 1 1012.4
20260903092024 65 244 0.0 0.0 0.00 0.00 0.00 1 1012.5
20260903091259 65 244 0.0 0.0 0.00 0.00 0.00 1 1012.4
20260903090753 65 244 0.0 0.0 0.00 0.00 0.00 1 1012.7
20260903090247 65 244 0.0 0.0 0.00 0.00 0.00 1 1012.9
20260903085741 65 244 0.0 0.0 0.00 0.00 0.00 1 1012.7
20260903085234 65 244 0.0 0.0 0.00 0.00 0.00 1 1012.7
20260903084729 65 244 0.0 0.0 0.00 0.00 0.00 1 1012.7
20260903084223 65 244 0.0 0.0 0.00 0.00 0.00 1 1012.8
20260903083718 65 244 0.0 0.0 0.00 0.00 0.00 1 1013.0
20260903083211 65 244 0.0 0.0 0.00 0.00 0.00 1 1013.0
20260903082704 65 244 0.0 0.0 0.00 0.00 0.00 1 1012.9
20260903082635 65 244 0.0 0.0 0.00 0.00 0.00 1 1013.0
20260903081653 65 244 0.0 0.0 0.00 0.00 0.00 1 1012.9
20260903081411 65 244 0.0 2.0 0.00 0.00 0.00 1 1012.9
20260903080642 65 244 0.0 2.0 0.00 0.00 0.00 1 1012.8
20260903080134 65 244 0.0 5.0 0.00 0.00 0.00 1 1012.6
20260903075628 65 244 0.0 5.0 0.00 0.00 0.00 1 1012.5
20260903075123 65 244 0.0 4.0 0.00 0.00 0.00 1 1012.8
20260903074617 65 244 1.0 4.0 0.00 0.00 0.00 1 1012.8
20260903074111 65 244 0.0 4.0 0.00 0.00 0.00 1 1012.9
20260903073822 65 244 1.0 5.0 0.00 0.00 0.00 1 1012.9
20260903073059 65 244 1.0 5.0 0.00 0.00 0.00 1 1012.9
20260903072553 65 243 1.0 5.0 0.00 0.00 0.00 1 1013.2
20260903072307 65 242 0.0 2.0 0.00 0.00 0.00 1 1013.1
20260903071758 65 242 0.0 0.0 0.00 0.00 0.00 1 1013.0
20260903071035 65 242 0.0 0.0 0.00 0.00 0.00 1 1012.9
20260903070529 65 242 0.0 2.0 0.00 0.00 0.00 1 1012.8
20260903070022 65 242 0.0 2.0 0.00 0.00 0.00 1 1013.0
20260903065517 65 242 0.0 1.0 0.00 0.00 0.00 1 1013.3
20260903065010 65 242 0.0 4.0 0.00 0.00 0.00 1 1013.4
20260903064505 65 242 0.0 4.0 0.00 0.00 0.00 1 1013.4
20260903064445 65 242 0.0 1.0 0.00 0.00 0.00 1 1013.2
20260903063453 65 242 0.0 1.0 0.00 0.00 0.00 1 1013.3
20260903062947 65 242 0.0 2.0 0.00 0.00 0.00 1 1013.4
20260903062441 65 242 0.0 2.0 0.00 0.00 0.00 1 1013.5
20260903061935 65 242 0.0 0.0 0.00 0.00 0.00 1 1013.6
20260903061428 65 242 0.0 0.0 0.00 0.00 0.00 1 1013.5
20260903061145 65 242 0.0 0.0 0.00 0.00 0.00 1 1013.5
20260903060643 65 242 0.0 0.0 0.00 0.00 0.00 1 1013.6
20260903055911 65 242 0.0 4.0 0.00 0.00 0.00 1 1013.6
20260903055406 65 242 1.0 4.0 0.00 0.00 0.00 1 1013.8
20260903054859 65 242 1.0 4.0 0.00 0.00 0.00 1 1013.8
20260903054353 65 242 0.0 4.0 0.00 0.00 0.00 1 1014.0
20260903053847 65 241 0.0 0.0 0.00 0.00 0.00 1 1014.2
20260903053341 65 241 0.0 0.0 0.00 0.00 0.00 1 1014.6
20260903053057 65 241 0.0 2.0 0.00 0.00 0.00 1 1014.5
20260903052329 65 241 1.0 4.0 0.00 0.00 0.00 1 1014.9
20260903051830 65 241 1.0 4.0 0.00 0.00 0.00 1 1015.1
20260903051327 65 238 1.0 4.0 0.00 0.00 0.00 1 1015.1
20260903050826 65 238 1.0 4.0 0.00 0.00 0.00 1 1014.9
20260903050326 65 236 0.0 2.0 0.00 0.00 0.00 1 1014.6
20260903045821 65 235 0.0 1.0 0.00 0.00 0.00 1 1014.6
20260903045321 65 235 0.0 2.0 0.00 0.00 0.00 1 1014.8
20260903044821 65 235 0.0 2.0 0.00 0.00 0.00 1 1015.0
20260903044319 65 235 0.0 2.0 0.00 0.00 0.00 1 1015.3
20260903043817 65 235 0.0 1.0 0.00 0.00 0.00 1 1015.3
20260903043316 65 235 0.0 1.0 0.00 0.00 0.00 1 1015.7
20260903042817 65 235 0.0 2.0 0.00 0.00 0.00 1 1015.8
20260903042311 65 235 0.0 2.0 0.00 0.00 0.00 1 1015.8
20260903042255 65 236 0.0 4.0 0.00 0.00 0.00 1 1016.1
20260903041310 65 236 1.0 4.0 0.00 0.00 0.00 1 1016.3
20260903040805 65 233 0.0 1.0 0.00 0.00 0.00 1 1016.2
20260903040303 65 233 1.0 5.0 0.00 0.00 0.00 1 1016.4
20260903035801 65 233 1.0 5.0 0.00 0.00 0.00 1 1016.7
20260903035300 65 246 1.0 4.0 0.00 0.00 0.00 1 1017.3
20260903034759 65 246 0.0 2.0 0.00 0.00 0.00 1 1017.0
20260903034259 65 244 0.0 2.0 0.00 0.00 0.00 1 1016.2
20260903034023 65 244 0.0 2.0 0.00 0.00 0.00 1 1016.3
20260903033255 65 243 0.0 1.0 0.00 0.00 0.00 1 1016.2
20260903032756 65 243 0.0 0.0 0.00 0.00 0.00 1 1015.9
20260903032255 65 243 0.0 1.0 0.00 0.00 0.00 1 1015.9
20260903031755 65 243 0.0 1.0 0.00 0.00 0.00 1 1015.9
20260903031515 65 243 0.0 1.0 0.00 0.00 0.00 1 1016.1
20260903030755 65 243 0.0 1.0 0.00 0.00 0.00 1 1016.2
20260903030253 65 243 0.0 0.0 0.00 0.00 0.00 1 1016.1
20260903025753 65 243 0.0 0.0 0.00 0.00 0.00 1 1016.0
20260903025254 65 243 0.0 0.0 0.00 0.00 0.00 1 1016.0
20260903024753 65 243 0.0 0.0 0.00 0.00 0.00 1 1015.7
20260903024511 65 243 0.0 0.0 0.00 0.00 0.00 1 1016.0
20260903023751 65 243 0.0 0.0 0.00 0.00 0.00 1 1016.0
20260903023511 65 243 0.0 0.0 0.00 0.00 0.00 1 1016.1
20260903022749 65 243 0.0 0.0 0.00 0.00 0.00 1 1016.5
20260903022249 65 243 0.0 0.0 0.00 0.00 0.00 1 1016.5
20260903021749 65 243 0.0 0.0 0.00 0.00 0.00 1 1016.6
20260903021247 65 243 0.0 0.0 0.00 0.00 0.00 1 1016.7
20260903020746 65 243 0.0 0.0 0.00 0.00 0.00 1 1017.0
20260903020247 65 243 0.0 0.0 0.00 0.00 0.00 1 1017.1
20260903015747 65 243 0.0 0.0 0.00 0.00 0.00 1 1017.3
20260903015506 65 243 0.0 0.0 0.00 0.00 0.00 1 1017.1
20260903014747 65 243 0.0 0.0 0.00 0.00 0.00 1 1017.3
20260903014247 65 243 0.0 0.0 0.00 0.00 0.00 1 1017.3
20260903013745 65 243 0.0 0.0 0.00 0.00 0.00 1 1017.0
20260903013504 65 243 0.0 1.0 0.00 0.00 0.00 1 1016.9
20260903012741 65 243 0.0 1.0 0.00 0.00 0.00 1 1016.9
20260903012241 65 243 0.0 2.0 0.00 0.00 0.00 1 1016.9
20260903011945 65 243 0.0 1.0 0.00 0.00 0.00 1 1016.8
20260903011826 65 243 0.0 2.0 0.00 0.00 0.00 1 1016.7
20260903010741 65 243 0.0 2.0 0.00 0.00 0.00 1 1016.7
20260903010241 65 243 0.0 2.0 0.00 0.00 0.00 1 1016.9
20260903010005 65 243 0.0 2.0 0.00 0.00 0.00 1 1016.9
20260903005241 65 243 0.0 2.0 0.00 0.00 0.00 1 1017.1
20260903005236 65 243 0.0 0.0 0.00 0.00 0.00 1 1017.1
20260903004241 66 243 0.0 0.0 0.00 0.00 0.00 1 1016.7
20260903003740 66 243 0.0 2.0 0.00 0.00 0.00 1 1016.7
20260903003240 66 243 0.0 2.0 0.00 0.00 0.00 1 1016.7
20260903002741 66 243 0.0 2.0 0.00 0.00 0.00 1 1016.8
20260903002457 66 243 0.0 2.0 0.00 0.00 0.00 1 1016.8
20260903001740 66 243 0.0 2.0 0.00 0.00 0.00 1 1016.6
20260903001242 66 243 0.0 2.0 0.00 0.00 0.00 1 1016.5
20260903000741 66 243 0.0 0.0 0.00 0.00 0.00 1 1016.7
20260903000241 66 243 0.0 0.0 0.00 0.00 0.00 1 1016.9
20260902235740 66 243 0.0 1.0 0.00 0.00 0.00 1 1016.9
20260902235241 66 243 0.0 1.0 0.00 0.00 0.00 1 1016.9
20260902234742 66 243 0.0 0.0 0.00 0.00 0.00 1 1016.8
20260902234241 66 243 0.0 0.0 0.00 0.00 0.00 1 1016.8
20260902233739 66 243 0.0 1.0 0.00 0.00 0.00 1 1016.8
20260902233237 66 243 0.0 2.0 0.00 0.00 0.00 1 1016.8
20260902232737 66 243 0.0 2.0 0.00 0.00 0.00 1 1016.7
20260902232235 66 243 0.0 2.0 0.00 0.00 0.00 1 1016.5
20260902231734 66 243 1.0 4.0 0.00 0.00 0.00 1 1016.5
20260902231232 66 243 0.0 4.0 0.00 0.00 0.00 1 1016.7
20260902230733 66 243 0.0 1.0 0.00 0.00 0.00 1 1016.7
20260902230232 66 243 0.0 2.0 0.00 0.00 0.00 1 1016.9
20260902225733 66 243 1.0 5.0 0.00 0.00 0.00 1 1017.0
20260902225231 66 243 0.0 5.0 0.00 0.00 0.00 1 1016.8
20260902224949 67 244 0.0 1.0 0.00 0.00 0.00 1 1017.0
20260902224231 67 244 0.0 1.0 0.00 0.00 0.00 1 1017.0
20260902223726 67 244 0.0 1.0 0.00 0.00 0.00 1 1017.0
20260902223227 67 244 0.0 1.0 0.00 0.00 0.00 1 1017.1
20260902222724 67 244 0.0 2.0 0.00 0.00 0.00 1 1017.3
20260902222225 67 244 0.0 2.0 0.00 0.00 0.00 1 1017.3
20260902221722 67 244 1.0 4.0 0.00 0.00 0.00 1 1017.2
20260902221220 67 244 1.0 4.0 0.00 0.00 0.00 1 1017.2
20260902220718 67 244 1.0 4.0 0.00 0.00 0.00 1 1017.2
20260902220440 67 244 1.0 4.0 0.00 0.00 0.00 1 1017.3
20260902215945 68 244 1.0 4.0 0.00 0.00 0.00 1 1017.6
20260902215439 68 244 1.0 4.0 0.00 0.00 0.00 1 1017.7
20260902214717 68 244 1.0 4.0 0.00 0.00 0.00 1 1017.7
20260902214216 68 244 0.0 4.0 0.00 0.00 0.00 1 1017.6
20260902213716 68 244 0.0 4.0 0.00 0.00 0.00 1 1017.5
20260902213216 68 244 0.0 4.0 0.00 0.00 0.00 1 1017.5
20260902212710 68 244 0.0 5.0 0.00 0.00 0.00 1 1017.3
20260902212203 68 244 1.0 5.0 0.00 0.00 0.00 1 1017.4
20260902211658 69 244 1.0 5.0 0.00 0.00 0.00 1 1017.3
20260902211151 69 244 1.0 5.0 0.00 0.00 0.00 1 1017.3
20260902210646 69 246 0.0 4.0 0.00 0.00 0.00 1 1017.3
20260902210140 69 246 0.0 2.0 0.00 0.00 0.00 1 1017.3
20260902205634 69 246 0.0 0.0 0.00 0.00 0.00 1 1017.2
20260902205135 69 246 0.0 0.0 0.00 0.00 0.00 1 1017.3
20260902204633 69 246 0.0 0.0 0.00 0.00 0.00 1 1017.3
20260902204356 69 246 0.0 0.0 0.00 0.00 0.00 1 1017.3
20260902203632 69 246 0.0 0.0 0.00 0.00 0.00 1 1017.4
20260902203132 68 246 0.0 0.0 0.00 0.00 0.00 1 1017.4
20260902202632 69 246 0.0 0.0 0.00 0.00 0.00 1 1017.3
20260902202130 69 246 0.0 2.0 0.00 0.00 0.00 1 1017.3
20260902201628 68 246 2.0 6.0 0.00 0.00 0.00 1 1017.3
20260902201126 68 246 2.0 6.0 0.00 0.00 0.00 1 1017.2
20260902200625 68 246 1.0 5.0 0.00 0.00 0.00 1 1017.1
20260902200125 68 245 1.0 5.0 0.00 0.00 0.00 1 1017.2
20260902195625 68 248 1.0 4.0 0.00 0.00 0.00 1 1017.2
20260902195125 68 248 0.0 4.0 0.00 0.00 0.00 1 1017.3